TimeCST,TemperatureF,Dew PointF,Humidity,Sea Level PressureIn,VisibilityMPH,Wind Direction,Wind SpeedMPH,Gust SpeedMPH,PrecipitationIn,Events,Conditions,WindDirDegrees,DateUTC
12:53 AM,75.0,71.1,87,29.81,8.0,South,9.2,-,N/A,,Overcast,190,2012-12-10 06:53:00
1:28 AM,62.6,59.0,88,29.84,8.0,NNW,19.6,28.8,N/A,,Overcast,330,2012-12-10 07:28:00
1:31 AM,60.8,57.2,88,29.84,8.0,NNW,26.5,58.7,N/A,Thunderstorm,Overcast,330,2012-12-10 07:31:00
1:41 AM,60.8,55.4,82,29.85,8.0,North,24.2,34.5,N/A,Thunderstorm,Thunderstorm,350,2012-12-10 07:41:00
1:53 AM,60.1,55.0,83,29.85,7.0,North,23.0,28.8,0.00,Rain,Light Rain,350,2012-12-10 07:53:00
2:03 AM,59.0,55.4,88,29.85,5.0,North,20.7,28.8,0.03,Rain,Rain,360,2012-12-10 08:03:00
2:11 AM,57.2,55.4,94,29.85,4.0,North,19.6,-,0.04,Rain,Rain,350,2012-12-10 08:11:00
2:23 AM,57.2,55.4,94,29.86,4.0,North,18.4,25.3,0.06,Rain,Light Rain,350,2012-12-10 08:23:00
2:53 AM,57.9,54.0,87,29.86,8.0,North,19.6,25.3,0.06,Rain,Light Rain,350,2012-12-10 08:53:00
3:25 AM,57.2,53.6,88,29.86,8.0,North,20.7,29.9,0.01,Rain-Thunderstorm,Light Rain,10,2012-12-10 09:25:00
3:53 AM,57.9,53.1,84,29.88,9.0,North,20.7,28.8,0.06,Thunderstorm,Overcast,350,2012-12-10 09:53:00
4:11 AM,57.2,53.6,88,29.88,8.0,North,17.3,-,N/A,,Overcast,350,2012-12-10 10:11:00
4:53 AM,57.0,51.1,81,29.88,8.0,North,26.5,34.5,N/A,,Overcast,350,2012-12-10 10:53:00
5:53 AM,54.0,46.9,77,29.95,10.0,NNW,27.6,34.5,N/A,,Overcast,340,2012-12-10 11:53:00
6:53 AM,48.9,32.0,52,30.00,10.0,North,27.6,36.8,N/A,,Overcast,350,2012-12-10 12:53:00
7:43 AM,46.4,30.2,53,30.03,10.0,North,24.2,36.8,N/A,,Overcast,350,2012-12-10 13:43:00
7:53 AM,46.9,30.0,52,30.03,10.0,North,23.0,33.4,N/A,,Overcast,350,2012-12-10 13:53:00
9:53 AM,48.0,28.9,48,30.05,10.0,North,23.0,-,N/A,,Overcast,350,2012-12-10 15:53:00
10:53 AM,50.0,26.1,39,30.08,10.0,North,19.6,32.2,N/A,,Overcast,350,2012-12-10 16:53:00
11:53 AM,48.9,26.1,41,30.08,10.0,North,24.2,28.8,N/A,,Overcast,350,2012-12-10 17:53:00
12:53 PM,51.1,27.0,39,30.06,10.0,North,25.3,32.2,N/A,,Overcast,350,2012-12-10 18:53:00
1:53 PM,54.0,30.0,40,30.04,10.0,North,23.0,29.9,N/A,,Mostly Cloudy,350,2012-12-10 19:53:00
2:53 PM,55.9,30.0,37,30.03,10.0,North,18.4,28.8,N/A,,Partly Cloudy,360,2012-12-10 20:53:00
3:53 PM,55.9,30.0,37,30.03,10.0,NNW,23.0,27.6,N/A,,Clear,340,2012-12-10 21:53:00
4:53 PM,53.1,30.0,41,30.03,10.0,North,18.4,-,N/A,,Clear,350,2012-12-10 22:53:00
5:53 PM,48.9,33.1,54,30.05,10.0,North,8.1,-,N/A,,Clear,350,2012-12-10 23:53:00
6:53 PM,46.0,33.1,61,30.08,10.0,North,8.1,-,N/A,,Clear,350,2012-12-11 00:53:00
7:53 PM,43.0,33.1,68,30.10,10.0,North,8.1,-,N/A,,Clear,350,2012-12-11 01:53:00
11:53 PM,41.0,28.9,62,30.13,10.0,North,9.2,-,N/A,,Clear,360,2012-12-11 05:53:00